Weather History for KVOK - March, 2014

Change the Weather History Date:

Monday, March 17, 2014

  Actual Average Record
Temperature  
Mean Temperature 25 °F -  
Max Temperature 36 °F 38 °F 82 °F (2012)
Min Temperature 15 °F 24 °F 7 °F (2013)
Degree Days  
Heating Degree Days 40    
Moisture  
Dew Point 12 °F    
Average Humidity 62    
Maximum Humidity 76    
Minimum Humidity 41    
Precipitation  
Precipitation 0.00 in - - ()
Sea Level Pressure  
Sea Level Pressure 29.89 in    
Wind  
Wind Speed 9 mph (SE)    
Max Wind Speed 14 mph    
Max Gust Speed 22 mph    
Visibility 10 miles    
Events      
Averages and records for this station are not official NWS values.
T = Trace of Precipitation, MM = Missing Value Source: NWS Daily Summary

Daily Weather History Graph

Daily Weather History Graph

Search for Another Location

Airport or City:

Trip Planner

Search our weather history database for the weather conditions in past years. The results will help you decide how hot, cold, wet, or windy it might be!

Date:

Astronomy

Mar. 17, 2014 Rise Set
Actual Time 7:09 AM CDT 7:09 PM CDT
Civil Twilight 6:40 AM CDT 7:38 PM CDT
Nautical Twilight 6:07 AM CDT 8:12 PM CDT
Astronomical Twilight 5:33 AM CDT 8:46 PM CDT
Moon 8:30 PM CDT (3/17) 7:22 AM CDT (3/17)
Length of Visible Light 12h 57m
Length of Day
12h 00m
Full, 99% of the Moon is Illuminated
Mar 17
Full
Mar 23
Last Quarter
Mar 30
New
Apr 7
First Quarter
Apr 15
Full

Hourly Weather History & Observations

Time (CDT) Temp. Windchill Dew Point Humidity Pressure Visibility Wind Dir Wind Speed Gust Speed Precip Events Conditions
12:58 AM 17.6 °F 7.3 °F 10.4 °F 73% 30.15 in 10.0 mi SE 8.1 mph - N/A   Mostly Cloudy
1:58 AM 17.2 °F 7.8 °F 9.5 °F 72% 30.13 in 10.0 mi SE 6.9 mph - N/A   Partly Cloudy
2:58 AM 16.9 °F 7.4 °F 9.7 °F 73% 30.11 in 10.0 mi SE 6.9 mph - N/A   Mostly Cloudy
3:58 AM 15.6 °F 7.0 °F 9.1 °F 76% 30.07 in 10.0 mi SE 5.8 mph - N/A   Mostly Cloudy
4:58 AM 16.9 °F 3.4 °F 7.7 °F 67% 30.02 in 10.0 mi SSE 12.7 mph - N/A   Overcast
5:58 AM 17.4 °F 6.2 °F 8.4 °F 68% 30.00 in 10.0 mi SSE 9.2 mph - N/A   Overcast
6:58 AM 18.0 °F 6.9 °F 9.5 °F 70% 30.00 in 10.0 mi SSE 9.2 mph - N/A   Overcast
7:58 AM 17.6 °F 6.4 °F 10.4 °F 73% 29.99 in 10.0 mi SSE 9.2 mph - N/A   Mostly Cloudy
8:58 AM 19.4 °F 7.9 °F 10.4 °F 68% 29.96 in 10.0 mi SSE 10.4 mph 21.9 mph N/A   Overcast
9:58 AM 21.2 °F 8.9 °F 10.4 °F 63% 29.91 in 10.0 mi SSE 12.7 mph 20.7 mph N/A   Overcast
10:58 AM 23.0 °F 10.6 °F 12.2 °F 63% 29.88 in 10.0 mi SSE 13.8 mph - N/A   Overcast
11:58 AM 24.8 °F 14.6 °F 12.2 °F 59% 29.86 in 10.0 mi SSE 10.4 mph 17.3 mph N/A   Overcast
12:58 PM 26.6 °F 16.2 °F 12.2 °F 55% 29.82 in 10.0 mi SSE 11.5 mph - N/A   Overcast
1:58 PM 28.4 °F 19.7 °F 12.2 °F 51% 29.79 in 10.0 mi SE 9.2 mph - N/A   Overcast
2:58 PM 32.0 °F 22.5 °F 12.2 °F 44% 29.77 in 10.0 mi SSE 12.7 mph - N/A   Overcast
3:58 PM 33.8 °F 25.3 °F 14.0 °F 44% 29.74 in 10.0 mi SSE 11.5 mph - N/A   Mostly Cloudy
4:58 PM 35.6 °F 27.1 °F 14.0 °F 41% 29.72 in 10.0 mi SSE 12.7 mph - N/A   Mostly Cloudy
5:58 PM 35.6 °F 28.6 °F 14.0 °F 41% 29.73 in 10.0 mi SE 9.2 mph - N/A   Mostly Cloudy
6:58 PM 33.8 °F 27.7 °F 14.0 °F 44% 29.75 in 10.0 mi SE 6.9 mph - N/A   Scattered Clouds
7:58 PM 28.4 °F 21.2 °F 15.8 °F 59% 29.75 in 10.0 mi ESE 6.9 mph - N/A   Scattered Clouds
8:58 PM 28.4 °F 22.2 °F 15.8 °F 59% 29.78 in 10.0 mi Variable 5.8 mph - N/A   Scattered Clouds
9:58 PM 23.0 °F 15.8 °F 15.8 °F 74% 29.78 in 10.0 mi East 5.8 mph - N/A   Scattered Clouds
10:58 PM 23.0 °F 14.7 °F 15.8 °F 74% 29.78 in 10.0 mi ESE 6.9 mph - N/A   Scattered Clouds
11:58 PM 24.8 °F 16.1 °F 17.8 °F 75% 29.78 in 10.0 mi East 8.1 mph - N/A   Clear